Regional Weather Roundup
Issued by NWS

Home | Current Version | Previous Version | Text Only | Print | Product List | Glossary Off
Versions: 1 2 3 4 5 6 7 8 9 10 11 12 13 14 15 16 17 18 19 20 21 22 23 24 25 26 27 28 29 30 31 32 33 34 35 36 37 38 39 40 41 42 43 44 45 46 47 48 49 50

000
ASUS43 KMKX 130310
RWRWI

WISCONSIN REGIONAL WEATHER ROUNDUP
NATIONAL WEATHER SERVICE MILWAUKEE/SULLIVAN WI
900 PM CST FRI FEB 12 2016

NOTE: "FAIR" INDICATES FEW OR NO CLOUDS BELOW 12,000 FEET WITH NO
SIGNIFICANT WEATHER AND/OR OBSTRUCTIONS TO VISIBILITY.

WIZ001-002-006>008-014>016-023>028-130400-
NORTHWEST WISCONSIN

CITY           SKY/WX    TMP DP  RH WIND       PRES   REMARKS
SUPERIOR ARPT  CLEAR     -1 -16  48 NW5       30.56R WCI -11
ASHLAND        CLEAR      0 -12  57 NW8       30.48R WCI -14
HAYWARD        CLEAR     -3 -18  48 CALM      30.46R
SIREN          CLEAR     -2 -17  49 NW6       30.54R WCI -14
CUMBERLAND     CLEAR      0 -17  46 NW10      30.49R WCI -17
RICE LAKE      CLEAR      0 -16  46 NW6       30.51R WCI -12
CHETEK         CLEAR     -2 -16  52 CALM      30.50R
LADYSMITH      CLEAR     -3 -17  50 NW6       30.46R WCI -15
EAU CLAIRE     CLEAR      1 -16  44 W6        30.51R WCI -10
MENOMONIE      CLEAR      2 -15  45 W9        30.53R WCI -13
NEW RICHMOND   CLEAR      1 -14  48 NW13      30.54R WCI -17
OSCEOLA        CLEAR      2 -14  47 NW7       30.58S WCI -10
$$

WIZ003>005-009-010-017-018-130400-
NORTH CENTRAL WISCONSIN

CITY           SKY/WX    TMP DP  RH WIND       PRES   REMARKS
MANITOWISH WTR CLOUDY    -4  -9  78 NW9       30.32S WCI -20
ARBOR VITAE    CLEAR     -1  -9  68 NW8       30.32R WCI -16
WOODRUFF       CLEAR     -1  -9  68 NW8       30.32R WCI -16
RHINELANDER    CLEAR     -5 -14  65 W12       30.32R WCI -23
EAGLE RIVER    CLEAR     -4 -10  73 W9        30.29S WCI -20
LAND O LAKES   LGT SNOW  -3  -7  84 W5        30.29R WCI -14
PHILLIPS       CLEAR     -5 -16  59 CALM      30.38R
TOMAHAWK       CLEAR     -5 -15  61 W7        30.36S WCI -19
MEDFORD        CLEAR     -3 -16  54 NW7       30.38R WCI -17
MERRILL        CLEAR     -2 -15  55 NW8       30.38R WCI -17
$$

WIZ029-030-035-036-043>047-130400-
CENTRAL WISCONSIN

CITY           SKY/WX    TMP DP  RH WIND       PRES   REMARKS
WAUSAU         CLEAR      0 -13  54 NW9       30.38R WCI -15
MOSINEE        CLEAR     -2 -15  55 NW12      30.40R WCI -20
MARSHFIELD     CLEAR     -1 -17  46 NW12      30.41R WCI -18
STEVENS POINT  CLEAR     -1 -15  52 NW5       30.42R WCI -11
WAUPACA        CLEAR      4 -13  46 NW8       30.43R WCI -10
WAUTOMA        CLEAR      2 -14  47 NW9       30.46R WCI -13
WISC RAPIDS    CLEAR      1 -15  47 NW9       30.45R WCI -14
CAMP DOUGLAS   CLEAR      2 -14  47 NW10      30.47R WCI -14
$$

WIZ011>013-019>022-031-037>040-048>050-130400-
NORTHEAST WISCONSIN

CITY           SKY/WX    TMP DP  RH WIND       PRES   REMARKS
ANTIGO         CLEAR     -4 -13  65 NW12      30.32S WCI -23
SHAWANO        CLEAR      2 -13  49 NW10      30.41S WCI -13
OCONTO         CLEAR      1 -11  57 NW7       30.40R WCI -12
STURGEON BAY   CLEAR      1 -11  55 NW9       30.38R WCI -14
GREEN BAY      CLEAR      1 -12  54 NW13      30.41R WCI -17
MANITOWOC      CLEAR      3  -9  57 NW12      30.41R WCI -13
APPLETON       CLEAR      1 -17  42 NW13G20   30.38R WCI -16
CLINTONVILLE   CLEAR      3 -13  47 NW14G20   30.41S WCI -15
OSHKOSH        CLEAR      3 -13  47 NW13      30.42R WCI -14
$$

WIZ032>034-041-042-053>061-130400-
SOUTHWEST WISCONSIN

CITY           SKY/WX    TMP DP  RH WIND       PRES   REMARKS
LA CROSSE      CLEAR      2 -10  57 NW9       30.54R WCI -13
SPARTA         CLEAR      3 -12  48 NW7       30.51R WCI  -9
VIROQUA        CLEAR      1 -13  52 NW10      30.45R WCI -15
BOSCOBEL       CLEAR      8 -11  41 NW6       30.52R WCI  -2
PRAIRIE DU CHI CLEAR      7 -11  43 NW10      30.53R WCI  -7
PLATTEVILLE    CLEAR      8  -8  48 NW14      30.46R WCI  -9
$$

WIZ056-057-062-063-064-067-068-130400-
SOUTH CENTRAL WISCONSIN

CITY           SKY/WX    TMP DP  RH WIND       PRES   REMARKS
REEDSBURG      CLEAR      4 -13  45 NW9       30.46R WCI -10
BARABOO/DELLS  CLEAR      4 -13  45 NW7       30.44R WCI  -8
LONE ROCK      CLEAR      7 -12  41 NW9       30.50R WCI  -7
MINERAL POINT  CLEAR      9  -9  43 NW12      30.43R WCI  -6
MADISON        CLEAR      5 -11  47 N14G22    30.43R WCI -12
MIDDLETON      CLEAR      7  -9  49 NW13      30.44R WCI  -9
WATERTOWN      CLEAR      6  -9  51 NW15G21   30.41R WCI -12
MONROE         CLEAR      9  -8  47 N13G23    30.41R WCI  -7
JANESVILLE     CLEAR     10  -8  44 NW16      30.41R WCI  -7
$$

WIZ051-052-058>065-066-070>072-130400-
SOUTHEAST WISCONSIN

CITY           SKY/WX    TMP DP  RH WIND       PRES   REMARKS
MILWAUKEE      CLEAR      7 -10  46 N23G30    30.39R WCI -14
WAUKESHA       CLEAR      5  -9  51 NW14G22   30.40R WCI -12
MILWAUKEE/TIMM CLEAR      7 -11  43 N16G24    30.41R WCI -11
RACINE         CLEAR      9 -10  42 NW17G25   30.40R WCI  -9
BURLINGTON     CLEAR      6  -9  49 NW16G23   30.40R WCI -12
KENOSHA        CLEAR      9  -8  46 NW17G25   30.39R WCI  -9
FOND DU LAC    CLEAR      3 -12  49 N15       30.42R WCI -16
SHEBOYGAN      CLEAR      3 -12  49 NW14G24   30.40R WCI -15
WEST BEND      CLEAR      3 -13  47 NW15G22   30.40R WCI -15
JUNEAU         CLEAR      3 -10  53 NW10      30.42R WCI -12
$$

LSZ147-162-130400-
LAKE SUPERIOR

STATION/POSITION TIME  TEMP    WIND        PRES    WAVE
                       AIR SEA DIR/SP/G            HT/PER
                 (UTC) (F)     (DEG/KT/KT) (MB)    (FT/S)
DEVILS ISLAND    0200    3     300/ 19/ 23 1033.9R
SAXON HARBOR     0200    5                 1031.2R
$$

LMZ867-665-643>646-130400-
LAKE MICHIGAN

STATION/POSITION TIME  TEMP    WIND        PRES    WAVE
                       AIR SEA DIR/SP/G            HT/PER
                 (UTC) (F)     (DEG/KT/KT) (MB)    (FT/S)
CHAMBERS ISLAND  0200    2     310/ 10/ 16 1027.4R
SISTER BAY       0235    2     340/ 24/ 28   N/A
ALGOMA LAKESHORE 0211          350/  6/ 11   N/A
KEWAUNEE LAKESHO 0200    3                 1027.5R
SHEBOYGAN LAKESH 0300    5     320/ 13/ 17 1031.6R
PORT WASHINGTON  0240    7     330/  9/ 21 1030.8R
MILWAUKEE LAKESH 0210    9     330/ 17/ 19   N/A
KENOSHA   LAKESH 0300   10     320/ 18/ 25 1028.8R
$$

TC  - TEMPERATURE IN CELSIUS
VSB - VISIBILITY IN STATUTE MILES
WCI - WIND CHILL INDEX
HX  - HEAT INDEX




USA.gov is the U.S. government's official web portal to all federal, state and local government web resources and services.